Lewisburg, WV

9:33 PM EST on November 21, 2019 (GMT -0500)
Greenbrier Valley

Weather History for KLWB - September, 2019

Change the Weather History Date:

Tuesday, September 24, 2019

  Actual Average Record
Temperature  
Mean Temperature 62 °F -  
Max Temperature 75 °F 72 °F 90 °F (2010)
Min Temperature 49 °F 48 °F 27 °F (1983)
Degree Days  
Heating Degree Days 4    
Growing Degree Days 12 (Base 50)    
Moisture  
Dew Point 49 °F    
Average Humidity 64    
Maximum Humidity 99    
Minimum Humidity 26    
Precipitation  
Precipitation 0.00 in - - ()
Sea Level Pressure  
Sea Level Pressure 30.02 in    
Wind  
Wind Speed 3 mph (NNW)    
Max Wind Speed 10 mph    
Max Gust Speed 18 mph    
Visibility 10 miles    
Events      
Averages and records for this station are not official NWS values.
T = Trace of Precipitation, MM = Missing Value Source: NWS Daily Summary

Daily Weather History Graph

Daily Weather History Graph

Search for Another Location

Airport or City:

Astronomy

Sep. 24, 2019 Rise Set
Actual Time 7:10 AM EDT 7:15 PM EDT
Civil Twilight 6:44 AM EDT 7:41 PM EDT
Nautical Twilight 6:14 AM EDT 8:12 PM EDT
Astronomical Twilight 5:43 AM EDT 8:43 PM EDT
Moon 2:00 AM EDT (9/24) 4:54 PM EDT (9/24)
Length of Visible Light 12h 57m
Length of Day
12h 04m
Waning Crescent, 23% of the Moon is Illuminated
Sep 24
Waning Crescent
Sep 28
New
Oct 5
First Quarter
Oct 13
Full
Oct 21
Last Quarter

Hourly Weather History & Observations

Time (EDT) Temp. Dew Point Humidity Pressure Visibility Wind Dir Wind Speed Gust Speed Precip Events Conditions
12:15 AM 64.4 °F 61.3 °F 90% 30.03 in 10.0 mi WSW 4.6 mph - N/A   Mostly Cloudy
12:35 AM 65.5 °F 62.1 °F 89% 30.02 in 10.0 mi WSW 4.6 mph - N/A   Mostly Cloudy
12:55 AM 65.8 °F 62.2 °F 88% 30.01 in 10.0 mi Calm Calm - N/A   Scattered Clouds
1:15 AM 63.7 °F 61.2 °F 91% 30.02 in 10.0 mi Calm Calm - N/A   Clear
1:35 AM 63.1 °F 61.2 °F 93% 30.02 in 10.0 mi Calm Calm - N/A   Scattered Clouds
1:55 AM 63.7 °F 61.5 °F 93% 30.01 in 10.0 mi Calm Calm - N/A   Scattered Clouds
2:15 AM 63.5 °F 61.0 °F 91% 30.01 in 10.0 mi Calm Calm - N/A   Clear
2:35 AM 63.1 °F 61.0 °F 93% 30.01 in 10.0 mi Calm Calm - N/A   Clear
2:55 AM 63.0 °F 60.3 °F 91% 30.00 in 10.0 mi Calm Calm - N/A   Clear
3:15 AM 63.1 °F 59.9 °F 89% 30.00 in 10.0 mi NW 3.5 mph - N/A   Clear
3:35 AM 62.8 °F 59.4 °F 89% 30.00 in 10.0 mi Calm Calm - N/A   Clear
3:55 AM 61.9 °F 59.0 °F 90% 30.00 in 10.0 mi Calm Calm - N/A   Clear
4:15 AM 61.9 °F 59.0 °F 90% 30.00 in 10.0 mi Calm Calm - N/A   Clear
4:35 AM 58.8 °F 56.7 °F 93% 30.00 in 10.0 mi Calm Calm - N/A   Clear
4:55 AM 56.5 °F 55.6 °F 97% 30.01 in 10.0 mi Calm Calm - N/A   Clear
5:15 AM 58.8 °F 58.1 °F 97% 30.01 in 10.0 mi Calm Calm - N/A   Clear
5:35 AM 59.7 °F 57.4 °F 92% 30.00 in 10.0 mi Calm Calm - N/A   Clear
5:55 AM 57.9 °F 54.3 °F 88% 30.02 in 10.0 mi Calm Calm - N/A   Clear
6:15 AM 53.2 °F 52.5 °F 97% 30.02 in 10.0 mi Calm Calm - N/A   Clear
6:35 AM 54.7 °F 54.3 °F 99% 30.02 in 10.0 mi Calm Calm - N/A   Clear
6:55 AM 54.5 °F 54.1 °F 99% 30.03 in 5.0 mi Calm Calm - N/A   Clear
7:15 AM 54.1 °F 53.8 °F 99% 30.03 in 7.0 mi Calm Calm - N/A   Scattered Clouds
7:35 AM 55.0 °F 53.6 °F 95% 30.03 in 10.0 mi Calm Calm - N/A   Scattered Clouds
7:55 AM 57.7 °F 52.7 °F 83% 30.04 in 10.0 mi Calm Calm - N/A   Scattered Clouds
8:15 AM 58.6 °F 52.9 °F 81% 30.04 in 10.0 mi Calm Calm - N/A   Clear
8:35 AM 59.9 °F 53.2 °F 79% 30.05 in 4.0 mi Calm Calm - N/A   Haze
8:55 AM 60.1 °F 54.3 °F 81% 30.05 in 10.0 mi Calm Calm - N/A   Clear
9:15 AM 61.2 °F 50.4 °F 68% 30.06 in 4.0 mi Calm Calm - N/A   Haze
9:35 AM - - N/A% 30.06 in - North 6.9 mph - N/A   Unknown
9:55 AM 63.5 °F 49.3 °F 60% 30.06 in 4.0 mi NNE 8.1 mph - N/A   Haze
10:15 AM 64.0 °F 47.3 °F 54% 30.06 in 10.0 mi NW 4.6 mph - N/A   Clear
10:35 AM 65.5 °F 46.0 °F 49% 30.06 in 10.0 mi North 8.1 mph - N/A   Clear
10:55 AM 67.1 °F 44.2 °F 44% 30.06 in 10.0 mi NNE 9.2 mph - N/A   Clear
11:15 AM 68.2 °F 41.0 °F 37% 30.06 in 10.0 mi NW 5.8 mph - N/A   Clear
11:35 AM 68.5 °F 39.9 °F 35% 30.05 in 10.0 mi North 10.4 mph 16.1 mph N/A   Clear
11:55 AM 68.4 °F 39.6 °F 35% 30.05 in 10.0 mi NNW 8.1 mph - N/A   Clear
12:15 PM 70.9 °F 39.0 °F 31% 30.05 in 10.0 mi North 6.9 mph - N/A   Clear
12:55 PM 71.1 °F 37.8 °F 30% 30.04 in 10.0 mi WNW 8.1 mph - N/A   Clear
1:15 PM 72.7 °F 38.1 °F 28% 30.03 in 10.0 mi WNW 3.5 mph - N/A   Clear
1:35 PM 72.0 °F 38.5 °F 30% 30.03 in 10.0 mi North 5.8 mph - N/A   Clear
1:55 PM 73.0 °F 38.7 °F 29% 30.01 in 10.0 mi NNE 5.8 mph - N/A   Clear
2:15 PM 73.6 °F 36.5 °F 26% 30.00 in 10.0 mi NNE 6.9 mph 17.3 mph N/A   Clear
2:55 PM 74.3 °F 38.3 °F 27% 29.99 in 10.0 mi NW 3.5 mph - N/A   Clear
3:15 PM 74.3 °F 39.4 °F 28% 29.98 in 10.0 mi North 9.2 mph - N/A   Clear
3:55 PM 74.7 °F 40.6 °F 29% 29.98 in 5.0 mi NNE 10.4 mph - N/A   Haze
4:15 PM 74.5 °F 39.6 °F 28% 29.98 in 10.0 mi NNW 9.2 mph 18.4 mph N/A   Clear
4:35 PM 74.7 °F 39.7 °F 28% 29.98 in 10.0 mi NW 5.8 mph - N/A   Clear
4:55 PM 73.4 °F 40.6 °F 31% 29.98 in 10.0 mi North 8.1 mph - N/A   Clear
5:15 PM 73.0 °F 42.6 °F 33% 29.98 in 10.0 mi North 9.2 mph - N/A   Clear
5:35 PM 72.9 °F 42.8 °F 34% 29.98 in 10.0 mi NNW 6.9 mph - N/A   Clear
5:55 PM 71.2 °F 42.6 °F 36% 29.99 in 10.0 mi NNW 5.8 mph - N/A   Clear
6:15 PM 70.9 °F 43.3 °F 37% 30.00 in 10.0 mi North 6.9 mph - N/A   Clear
6:35 PM 69.1 °F 43.9 °F 40% 30.00 in 10.0 mi North 4.6 mph - N/A   Clear
6:55 PM 67.8 °F 44.1 °F 42% 30.01 in 10.0 mi North 4.6 mph - N/A   Clear
7:15 PM 66.4 °F 44.6 °F 45% 30.01 in 10.0 mi Calm Calm - N/A   Clear
7:35 PM 65.3 °F 45.0 °F 48% 30.01 in 10.0 mi North 3.5 mph - N/A   Clear
7:55 PM 64.8 °F 45.1 °F 49% 30.02 in 10.0 mi NNW 4.6 mph - N/A   Clear
8:15 PM 64.0 °F 45.1 °F 50% 30.02 in 10.0 mi North 3.5 mph - N/A   Clear
8:35 PM 57.2 °F 45.0 °F 64% 30.02 in 10.0 mi East 3.5 mph - N/A   Clear
8:55 PM 58.1 °F 45.5 °F 63% 30.03 in 10.0 mi Calm Calm - N/A   Clear
9:15 PM 57.2 °F 45.7 °F 65% 30.03 in 10.0 mi Calm Calm - N/A   Clear
9:35 PM 58.5 °F 45.9 °F 63% 30.03 in 10.0 mi Calm Calm - N/A   Clear
9:55 PM 54.1 °F 45.7 °F 73% 30.03 in 10.0 mi Calm Calm - N/A   Clear
10:15 PM 57.4 °F 45.9 °F 65% 30.03 in 10.0 mi Calm Calm - N/A   Clear
10:35 PM 51.3 °F 44.8 °F 78% 30.03 in 10.0 mi Calm Calm - N/A   Clear
10:55 PM 50.7 °F 44.6 °F 80% 30.03 in 10.0 mi Calm Calm - N/A   Clear
11:35 PM 49.1 °F 45.0 °F 86% 30.03 in 10.0 mi Calm Calm - N/A   Clear
11:55 PM 50.9 °F 45.7 °F 82% 30.02 in 10.0 mi Calm Calm - N/A   Clear